TARTU/ULENURME current weather conditions

sailwx.info

Wind from 260 at 5 knots

Air temperature -0.0° C
Visibility: greater than 5.4 NM
Dewpoint -1.0° C

Last reported at 2014-Oct-31 17:50 UTC.
Time now 2014-Oct-31 19:58 UTC

Location: N 58°18' E 026°44'.
View on Google Maps.

See reports from other nearby stations

  
Tides and Currents Weather Stations Pressure Air Temp Water Temp Dewpoint Dewpoint Depression Visibility Wind Speed Wind Dir Waves Ship Positions
date/time (UTC)wind fromknots sea level pressurealtimeterstation pressurevisibilityair tempwater tempwave heightnotes
2014-Oct-31 17:50 260 5 5.4-0.0
2014-Oct-31 16:50 260 5 5.4 1.0
2014-Oct-31 15:50 260 5 5.4 1.0
2014-Oct-31 14:50 270 2 5.4 3.0
2014-Oct-31 13:50 270 3 5.4 5.0
2014-Oct-31 12:50 270 5 5.4 7.0
2014-Oct-31 11:50 280 7 5.4 6.0
2014-Oct-31 10:50 270 7 5.4 5.0
2014-Oct-31 09:50 270 9 5.4 5.0
2014-Oct-31 08:50 270 8 5.4 4.0
2014-Oct-31 07:50 270 8 5.4 4.0
2014-Oct-31 06:50 260 8 5.4 4.0
2014-Oct-31 05:50 270 8 5.4 4.0
2014-Oct-31 04:50 270 6 5.4 4.0
2014-Oct-31 03:50 280 7 5.4 4.0
2014-Oct-31 02:50 260 5 4.3 3.0 Mist.
2014-Oct-31 01:50 290 6 5.4 4.0
2014-Oct-31 00:50 270 8 5.4 5.0
2014-Oct-30 23:50 260 9 4.9 5.0 Mist.
2014-Oct-30 22:50 250 9 2.6 5.0 Mist.
2014-Oct-30 21:50 260 10 3.8 5.0 Mist.
2014-Oct-30 20:50 270 9 1.3 4.0
2014-Oct-30 19:50 260 9 0.5 4.0 Mist.
2014-Oct-30 18:50 250 8 0.8 5.0 Mist.
2014-Oct-30 17:50 230 8 2.6 4.0 Mist.
2014-Oct-30 16:50 230 6 2.6 3.0 Mist.
2014-Oct-30 15:50 240 3 1.6 3.0 Shallow fog.
2014-Oct-30 14:50 220 3 0.7 5.0 Shallow fog.
2014-Oct-30 13:50 270 7 2.2 5.0 Mist.
2014-Oct-30 12:50 280 8 1.1 6.0 Mist.
2014-Oct-30 11:50 280 8 1.0 6.0 Mist.
2014-Oct-30 10:50 250 6 2.5 5.0 Mist.
2014-Oct-30 09:50 230 4 2.6 5.0 Mist.
2014-Oct-30 08:50 270 5 3.8 5.0 Mist.
2014-Oct-30 07:50 230 4 4.9 4.0 Mist.
2014-Oct-30 06:50 210 3 3.8 4.0 Mist.
2014-Oct-30 05:50 200 4 2.7 4.0 Drizzle.
2014-Oct-30 04:50 220 4 2.7 5.0 Drizzle.
2014-Oct-30 03:50 250 4 5.4 5.0 Precipitation.
2014-Oct-30 02:50 220 6 5.4 6.0 Light drizzle.
2014-Oct-30 01:50 220 5 5.4 6.0
2014-Oct-30 00:50 220 8 5.4 6.0
2014-Oct-29 23:50 230 10 5.4 7.0
2014-Oct-29 22:50 230 9 5.4 8.0
2014-Oct-29 21:50 220 11 5.4 8.0
2014-Oct-29 20:50 220 14 5.4 8.0
2014-Oct-29 19:50 220 13 5.4 7.0